YAM-2 (48911 NORAD) Tracking and Keplerian Element Data

This shows tracking and keplerian element data for the satellite.

Feedback or suggestion? Click here.




ElementValue
Catalog48911
NameYAM-2
Epoch Orbit1679
Epoch Day287.8960702
Epoch Year2021
RAAN55.1378
Inclination97.5273
Eccentricity0.0010653
Argument of Perigee219.7337
Mean Anonmoly140.3114
Mean Motion15.12770085
Decay Rate2.221E-05
L11 48911U 21059AJ 21287.89607020 .00002221 00000-0 13020-3 0 9998
L22 48911 97.5273 55.1378 0010653 219.7337 140.3114 15.12770085 16797

Live tracking and technical data element details for YAM-2 (NORAD 48911). YAM-2 can be tracked NOW for your location showing map with azimuth and elevation plus other details from your city location.

Track the satellite on the map from your city or location and see movement details for azimuth, elevation, latitude, longitude, range, height, and movement on the map or in text.







IsCatalogInMostPopularTable: catalog: 48911, numindb: 19
Update: records affected: 1



GetName: 48911 YAM-2

Hit Count: updated at: Tue, 19 Oct 2021 08:04:20 GMT